TimePDT,TemperatureF,Dew PointF,Humidity,Sea Level PressureIn,VisibilityMPH,Wind Direction,Wind SpeedMPH,Gust SpeedMPH,PrecipitationIn,Events,Conditions,WindDirDegrees,DateUTC
12:53 AM,42.1,35.1,76,30.09,9.0,Calm,Calm,-,N/A,,Clear,0,2012-10-07 07:53:00
1:53 AM,46.0,34.0,63,30.09,9.0,Calm,Calm,-,N/A,,Clear,0,2012-10-07 08:53:00
2:53 AM,45.0,34.0,65,30.07,9.0,East,5.8,-,N/A,,Clear,90,2012-10-07 09:53:00
3:53 AM,39.0,33.1,79,30.06,9.0,Calm,Calm,-,N/A,,Clear,0,2012-10-07 10:53:00
4:53 AM,39.9,34.0,79,30.06,9.0,Calm,Calm,-,N/A,,Clear,0,2012-10-07 11:53:00
5:53 AM,37.9,32.0,79,30.06,9.0,Calm,Calm,-,N/A,,Clear,0,2012-10-07 12:53:00
6:53 AM,39.9,33.1,77,30.06,9.0,Calm,Calm,-,N/A,,Clear,0,2012-10-07 13:53:00
7:53 AM,39.9,32.0,73,30.06,8.0,Calm,Calm,-,N/A,,Clear,0,2012-10-07 14:53:00
8:53 AM,48.0,36.0,63,30.06,8.0,Calm,Calm,-,N/A,,Clear,0,2012-10-07 15:53:00
9:53 AM,53.1,37.9,57,30.06,8.0,Calm,Calm,-,N/A,,Clear,0,2012-10-07 16:53:00
10:53 AM,63.0,39.0,41,30.05,8.0,SW,3.5,-,N/A,,Clear,220,2012-10-07 17:53:00
11:53 AM,68.0,39.0,35,30.04,8.0,SSW,3.5,-,N/A,,Clear,210,2012-10-07 18:53:00
12:53 PM,71.1,32.0,24,30.03,9.0,SSW,3.5,-,N/A,,Clear,200,2012-10-07 19:53:00
1:53 PM,69.1,35.1,29,30.02,8.0,West,8.1,-,N/A,,Clear,260,2012-10-07 20:53:00
2:53 PM,70.0,34.0,27,30.00,8.0,SW,8.1,-,N/A,,Clear,230,2012-10-07 21:53:00
3:53 PM,69.1,34.0,27,29.98,8.0,West,6.9,-,N/A,,Clear,270,2012-10-07 22:53:00
4:53 PM,69.1,35.1,29,29.96,8.0,West,4.6,-,N/A,,Clear,260,2012-10-07 23:53:00
5:53 PM,64.9,37.9,37,29.94,8.0,WSW,4.6,-,N/A,,Clear,250,2012-10-08 00:53:00
6:53 PM,57.9,39.0,49,29.93,8.0,Calm,Calm,-,N/A,,Clear,0,2012-10-08 01:53:00
7:53 PM,51.1,39.9,66,29.93,9.0,Calm,Calm,-,N/A,,Clear,0,2012-10-08 02:53:00
8:53 PM,48.9,39.9,71,29.94,9.0,Calm,Calm,-,N/A,,Clear,0,2012-10-08 03:53:00
9:53 PM,48.0,39.0,71,29.94,8.0,Calm,Calm,-,N/A,,Clear,0,2012-10-08 04:53:00
10:53 PM,44.1,37.9,79,29.94,9.0,Calm,Calm,-,N/A,,Clear,0,2012-10-08 05:53:00
11:53 PM,43.0,37.9,82,29.94,9.0,Calm,Calm,-,N/A,,Clear,0,2012-10-08 06:53:00